SCP
0 0 0 0 0 0 0 0 0 0 0 0 0 0 0 0 0 0 0 0 -0 -0 -0 -0 -0 -0 0 0 0 0 0 0 0 0 0 0 0 0 0 0 0 0 0
0 0 0 0 0 0 0 0 0 0 0 0 0 0 0 0 0 0 0 0 -0 -0 -0 -0 0 0 0 0 0 0 0 0 0 0 0 0 0 0 0 0 0 0 0
0 0 0 0 0 0 0 0 0 0 0 0 0 0 0 0 0 -0 -0 -0 -0 0 0 0 0 0 0 0 0 0 0 0 0 0 0 0 0 0 0 0 0 0 0
0 0 0 0 0 0 0 0 0 0 0 0 0 0 0 0 -0 0 0 0 0 0 0 0 0 0 0 0 0 0 0 0 0 0 0 0 0 0 0 0 0 0 0
0 0 0 0 0 0 0 0 0 0 0 0 0 0 0 0 0 0 0 0 0 0 0 0 0 0 0 0 0 0 0 0 0 0 0 0 0 0 0 0 0 0 0
0 0 0 0 0 0 0 0 0 0 0 0 0 0 0 0 0 0 0 0 0 0 0 0 0 0 0 0 0 0 0 0 0 0 0 0 0 0 0 0 0 0 0
0 0 0 0 0 0 0 0 0 0 0 0 0 0 0 0 0 0 0 0 0 0 0 0 0 0 0 0 0 0 0 0 0 0 0 0 0 0 0 0 0 0 0
0 0 0 0 0 0 0 0 0 0 0 0 0 0 0 0 0 0 0 0 0 0 0 0 0 0 0 0 0 0 0 0 0 0 0 0 0 0 0 0 0 0 0
0 0 0 0 0 0 0 0 0 0 0 0 0 0 0 0 0 0 0 0 0 0 0 0 0 0 0 0 0 0 0 0 0 0 0 0 0 0 0 0 0 0 0
0 0 0 0 0 0 0 0 0 0 0 0 0 0 0 0 0 0 0 0 0 0 0 0 0 0 0 0 0 0 0 0 0 0 0 0 0 0 0 0 0 0 0
0 0 0 0 0 0 0 0 0 0 0 0 0 0 0 0 0 0 0 0 0 0 0 0 0 0 0 0 0 0 0 0 0 0 0 0 0 0 0 0 0 0 0
0 0 0 0 0 0 0 0 0 0 0 0 0 0 0 0 0 0 0 0 0 0 0 0 0 0 0 0 0 0 0 0 0 0 0 0 0 0 0 0 0 0 0
0 0 0 0 0 0 0 0 0 0 0 0 0 0 0 0 0 0 0 0 0 0 0 0 0 0 0 0 0 0 0 0 0 0 0 0 0 0 0 0 0 0 0
0 0 0 0 0 0 0 0 0 0 0 0 0 0 0 0 0 0 0 0 0 0 0 0 0 0 0 0 0 0 0 0 0 0 0 0 0 0 0 0 0 0 0
0 0 0 0 0 0 0 0 0 0 0 0 0 0 0 0 0 0 0 0 0 0 0 0 0 0 0 0 0 0 0 0 0 0 0 0 0 0 0 0 0 0 0
0 0 0 0 0 0 0 0 0 0 0 0 0 0 0 0 0 0 0 0 0 0 0 0 0 0 0 0 0 0 0 0 0 0 0 0 0 0 0 0 0 0 0
0 0 0 0 0 0 0 0 0 0 0 0 0 0 0 0 0 0 0 0 0 0 0 0 0 0 0 0 0 0 0 0 0 0 0 0 0 0 0 0 0 0 0
0 0 0 0 0 0 0 0 0 0 0 0 0 0 0 0 0 0 0 0 0 0 0 0 0 0 0 0 0 0 0 0 0 0 0 0 0 0 0 0 0 0 0
0 0 0 0 0 0 0 0 0 0 0 0 0 0 0 0 0 0 0 0 0 0 0 0 0 0 0 0 0 0 0 0 0 0 0 0 0 0 0 0 0 0 0
0 0 0 0 0 0 0 0 0 0 0 0 0 0 0 0 0 0 0 0 0 0 0 0 0 0 0 0 0 0 0 0 0 0 0 0 0 0 0 0 0 0 0
0 0 0 0 0 0 0 0 0 0 0 0 0 0 0 0 0 0 0 0 0 0 0 0 0 0 0 0 0 0 0 0 0 0 0 0 0 0 0 0 0 0 0
0 0 0 0 0 0 0 0 0 0 0 0 0 0 0 0 0 0 0 0 0 0 0 0 0 0 0 0 0 0 0 0 0 0 0 0 0 0 0 0 0 0 0
0 0 0 0 0 0 0 0 0 0 0 0 0 0 0 0 0 0 0 0 0 0 0 0 0 0 0 0 0 0 0 0 0 0 0 0 0 0 0 0 0 0 0
0 0 0 0 0 0 0 0 0 0 0 0 0 0 0 0 0 0 0 0 0 0 0 0 0 0 0 0 0 0 0 0 0 0 0 0 0 0 0 0 0 0 0
0 0 0 0 0 0 0 0 0 0 0 0 0 0 0 0 0 0 0 0 0 0 0 0 0 0 0 0 0 0 0 0 0 0 0 0 0 0 0 0 0 0 0
0 0 0 0 0 0 0 0 0 0 0 -0 0 0 0 0 0 0 0 0 0 0 0 0 0 0 0 0 0 0 0 0 0 0 0 0 0 0 0 0 0 0 0
Wind_Speed
4 4 5 4 4 4 3 3 3 3 3 4 4 5 5 5 5 5 6 6 7 7 6 7 8 7 7 5 5 6 7 7 12 11 9 8 8 8 9 8 8 9 9
5 4 4 4 3 3 2 1 1 2 2 3 3 4 5 5 5 6 8 7 7 9 9 9 10 8 8 7 7 8 8 8 11 16 11 10 10 9 9 10 9 8 8
5 5 5 4 3 3 2 1 0 1 2 2 3 4 5 5 6 7 7 8 8 10 10 12 12 11 12 9 9 10 9 10 10 13 13 9 10 8 9 9 9 9 9
6 6 6 5 4 3 2 1 0 1 2 3 4 4 5 6 8 8 9 10 11 11 11 11 12 12 13 12 12 11 10 11 11 12 13 10 10 9 9 9 9 7 9
7 7 6 5 4 3 2 1 1 2 3 4 5 5 6 6 6 10 12 12 13 14 13 12 13 16 20 18 15 12 12 11 11 12 14 13 10 8 10 7 11 8 9
7 7 6 5 4 3 2 1 2 3 4 5 5 6 7 7 15 19 16 13 14 15 15 14 14 15 18 22 24 24 22 17 13 13 15 16 15 10 8 9 11 11 11
7 6 6 5 4 3 1 2 3 4 5 5 6 7 9 11 18 20 21 16 15 14 15 15 13 12 14 15 19 23 21 24 25 19 19 19 18 14 13 14 13 14 15
7 7 6 5 4 2 1 1 3 3 4 6 7 8 10 12 19 22 22 15 13 14 14 15 16 16 15 18 17 17 17 16 19 16 16 18 17 16 15 18 18 17 17
8 7 7 5 4 2 1 1 2 3 5 6 7 7 9 13 19 22 21 12 11 14 14 15 16 16 22 26 20 17 18 17 21 27 29 28 31 31 25 15 14 15 18
8 7 6 5 3 2 1 1 2 3 5 7 8 7 9 11 18 21 21 9 11 12 12 14 18 22 26 28 20 17 19 18 16 17 21 24 22 22 26 19 15 16 16
5 6 5 3 2 1 1 1 2 4 6 6 9 9 9 11 16 20 21 11 11 12 12 12 13 25 29 30 28 20 24 25 18 17 16 15 15 14 14 15 15 15 17
6 5 4 2 1 1 1 2 3 4 6 7 8 9 7 9 12 17 22 22 21 15 13 13 15 28 32 33 27 27 33 29 15 13 13 13 13 13 13 14 17 18 19
5 4 3 2 2 2 2 3 3 3 4 6 6 8 8 7 10 19 21 24 25 17 14 23 28 32 31 23 25 31 25 15 13 13 14 14 14 14 14 13 15 17 20
5 4 3 3 3 3 3 3 4 4 5 6 7 8 9 9 8 8 9 12 16 16 14 17 24 25 23 22 18 16 11 11 13 14 15 14 13 12 13 13 13 13 15
5 4 3 3 3 3 4 4 6 7 8 8 8 8 9 9 11 21 17 12 12 13 15 9 9 10 11 10 11 11 11 11 12 12 13 13 13 13 14 13 13 13 15
4 4 4 3 3 3 4 5 10 12 16 18 18 14 9 14 21 22 23 24 24 23 13 7 9 10 11 12 12 13 13 12 12 13 13 13 13 13 14 13 13 14 15
5 4 3 4 4 4 4 4 6 7 11 14 13 14 14 17 18 19 20 20 18 16 6 7 8 10 11 12 12 13 14 14 14 13 13 13 13 13 13 13 13 13 13
5 5 5 4 4 4 4 5 5 5 6 6 8 14 14 15 17 17 17 13 8 8 4 7 9 10 10 11 12 13 14 14 13 13 13 12 12 12 13 13 12 13 12
5 5 4 4 4 4 4 5 5 6 6 6 7 8 10 14 14 14 12 4 6 8 8 8 8 9 10 11 12 12 13 14 15 14 13 13 12 11 12 12 12 14 12
5 7 6 4 4 4 5 5 5 5 5 5 6 6 6 5 4 6 4 4 5 6 7 8 9 9 10 11 12 12 13 13 14 13 13 13 12 11 12 13 12 11 9
4 5 6 5 4 5 5 5 5 5 5 5 6 8 12 5 5 7 6 5 5 7 8 9 10 10 10 10 11 13 14 13 13 13 13 13 13 12 11 10 9 7 5
4 4 4 5 4 4 5 5 5 5 5 6 6 7 11 5 5 6 6 7 6 6 7 8 9 9 10 10 12 13 14 13 13 13 13 13 12 12 10 9 7 5 2
4 4 4 5 4 5 5 5 5 5 5 5 6 6 5 5 5 6 7 7 7 8 7 7 9 10 9 10 11 12 13 14 13 13 13 12 11 10 9 8 6 4 2
4 5 5 5 4 4 5 5 5 5 5 5 5 5 6 5 6 7 7 7 7 8 7 7 8 12 15 13 11 11 13 15 12 10 13 11 10 9 8 7 6 6 5
4 5 5 5 5 5 5 5 5 5 5 5 5 6 5 5 6 7 6 6 8 9 10 10 8 9 13 17 16 15 19 21 13 10 10 9 9 9 8 7 6 6 7
5 5 5 4 5 5 5 5 6 5 5 5 5 5 5 6 6 7 6 6 7 8 10 9 10 13 16 14 15 19 21 19 14 13 9 7 8 8 8 6 8 7 7
Wind_Direction
142 131 122 114 105 95 82 66 46 24 10 4 355 349 343 340 337 330 321 317 316 310 304 299 293 291 288 285 282 278 273 265 274 282 284 291 285 278 281 277 270 264 262
166 155 150 145 135 121 107 82 40 8 350 340 334 331 329 330 322 317 313 315 306 306 306 301 297 296 287 283 279 276 274 267 271 281 284 288 284 279 275 273 272 266 258
175 170 170 170 167 164 159 152 5 331 325 335 334 327 323 320 315 308 301 304 301 299 300 299 300 300 296 292 283 281 278 277 271 276 279 276 281 280 279 271 260 260 259
182 183 188 189 184 177 169 161 263 334 340 344 337 328 324 321 316 312 315 310 303 299 298 297 297 296 296 296 291 284 283 281 278 277 279 274 270 273 272 276 274 254 255
187 193 197 186 176 167 156 132 20 5 353 339 334 331 328 319 314 319 317 310 307 304 302 300 297 297 296 294 290 290 290 285 284 282 281 280 270 261 264 265 270 273 260
193 198 185 178 174 161 126 45 7 355 345 337 332 325 321 319 317 318 317 311 307 304 304 304 300 293 292 294 294 292 289 286 286 283 281 278 279 275 270 267 270 273 272
195 189 181 179 173 146 83 20 357 341 333 328 320 319 312 308 313 316 316 311 303 300 299 298 297 296 295 290 289 289 288 285 282 281 279 279 284 287 289 280 269 264 264
192 186 180 175 168 145 83 356 335 323 322 315 311 306 301 302 312 315 313 307 298 294 293 293 292 292 290 289 287 284 282 280 279 277 274 277 280 281 277 277 279 278 274
194 187 176 170 167 165 274 309 308 307 307 301 294 296 297 301 308 309 308 301 295 294 292 288 287 286 286 288 287 283 281 278 279 276 273 275 277 281 281 279 270 264 263
195 173 157 158 168 195 247 286 285 297 294 296 295 295 291 290 297 304 306 297 293 291 289 285 283 285 286 288 285 281 279 277 273 270 270 271 272 274 275 272 273 270 269
149 140 146 151 162 200 256 271 291 294 294 292 292 290 283 282 291 299 302 297 290 291 291 291 288 291 290 289 286 280 277 279 274 269 267 265 262 261 260 256 256 258 261
138 146 155 157 179 190 259 278 279 284 291 289 289 291 282 280 285 294 300 301 300 296 294 292 289 291 292 292 291 285 287 288 282 277 273 270 266 262 259 257 255 255 257
148 166 179 197 222 231 247 269 273 264 272 284 287 291 293 287 286 298 302 302 301 298 291 292 296 299 301 300 297 297 297 289 282 276 273 271 268 267 265 262 260 259 259
171 189 199 219 242 237 242 246 247 249 257 266 273 279 285 288 289 293 290 295 300 300 296 297 305 309 309 308 306 303 296 290 285 280 277 276 274 270 265 262 261 259 258
181 199 215 222 235 255 254 242 250 236 234 248 254 257 280 295 299 306 310 309 307 306 319 327 325 319 313 311 309 306 302 297 291 284 281 278 273 269 266 262 258 254 253
190 206 213 220 229 243 260 275 274 275 277 278 282 287 294 298 307 314 317 320 327 332 340 330 317 314 312 312 311 310 307 302 297 291 284 278 273 270 270 267 260 254 251
198 204 207 220 228 238 248 262 284 297 293 294 294 301 303 308 317 323 328 335 341 345 340 312 309 310 310 309 309 307 306 305 303 296 289 281 275 272 270 268 266 259 252
204 215 216 219 226 232 239 247 256 271 290 293 296 302 309 319 323 331 341 351 335 336 309 304 308 308 308 308 308 308 308 308 308 304 299 291 281 275 273 270 267 261 255
209 217 218 221 224 231 238 246 249 254 264 279 295 301 312 316 324 335 352 346 312 316 314 308 305 306 307 306 306 307 308 309 310 310 307 303 295 286 278 274 272 265 258
219 229 222 218 225 231 236 242 247 251 258 269 279 289 300 299 321 326 327 300 296 300 304 306 307 306 307 307 309 310 311 312 313 314 313 310 306 300 292 285 278 270 259
217 229 232 227 226 228 232 237 244 247 254 262 268 279 292 309 312 305 304 301 300 304 307 308 307 308 308 309 312 312 312 313 314 314 315 313 311 307 302 296 291 280 265
219 222 221 227 231 232 235 236 240 247 253 262 274 287 303 308 295 294 295 297 296 291 292 297 300 301 305 311 314 314 314 315 317 319 317 315 314 312 308 305 304 300 286
218 228 232 232 231 238 242 238 239 244 251 256 267 278 284 279 278 283 286 291 295 296 296 295 297 300 305 310 309 309 312 315 319 319 319 318 319 321 322 323 328 342 23
219 228 236 238 235 235 241 243 242 246 250 256 260 266 271 273 276 282 284 287 292 294 294 295 294 295 303 311 312 311 311 317 324 323 321 322 326 329 336 348 4 26 46
229 232 238 241 240 240 244 249 249 249 252 258 261 267 270 274 279 281 282 286 292 294 298 300 296 300 307 310 310 312 316 325 338 340 332 334 339 345 351 1 16 31 45
229 233 238 240 241 240 242 249 253 254 255 259 260 261 268 274 278 281 285 289 295 299 300 301 300 304 308 308 309 317 322 333 354 354 348 347 355 3 4 12 21 32 40